Find Starlink 35148

NORAD ID: 65844 Int'l Des: 2025-221 Owner: SPXS Country: US Constellation: starlink operational
LEOCIRCULAR

当前视图

正在加载3D地球...

关于 Starlink 35148

正在加载描述...

即将过境

Passes for default location (London). Set your location on the main map for personalized predictions.

高度历史

Loading altitude history...

两行轨道根数

1 65844U 25221X 26150.14664499 .00055784 00000-0 16480-2 0 9996
2 65844 53.1606 69.3578 0000740 165.0763 195.0262 15.34435977 37213
Epoch: May 30, 2026 • Age: 7 hours

当前状态

高度 465.9 km
速度 7.63 km/s
星下点 -14.27°S, 148.52°W
发射日期 Sep 29, 2025
运行时间 0.6 years
类型 internet

技术详情

分类 Payload
质量 575.00 kg
干质量 530.00 kg
总质量 575.00 kg
长度 0.30 m
直径 4.10 m
跨度 29.00 m
形状 Box + pan
制造商 SPXS
平台类型 Starlink V2MO
阶段状态 In Orbit
所有者/国家 SPXS/US

Most Searched